GFSCGP_sfc_temp_021.txt.gz
Temp
53 46 45 53 51 53 48 46 44 55 58 52 52 54 57 59 55 53 60 61 59 63 67 60 61 60 59 56 54 53 52 51 51 47 45 43 45 41 40 41 43 42 42 42
48 44 54 55 53 51 49 47 45 53 56 50 50 51 58 54 58 60 60 58 61 62 58 60 56 57 57 53 53 53 53 51 52 50 49 44 43 41 42 41 42 42 41 40
50 51 56 54 52 49 51 47 49 49 52 48 46 44 48 53 57 59 62 63 64 63 56 57 54 55 55 53 53 52 52 51 52 50 47 41 41 39 39 39 40 40 40 39
48 56 55 49 49 52 47 52 50 47 41 41 44 40 46 51 52 54 59 59 61 57 55 56 54 53 53 54 54 53 52 51 51 48 47 47 45 44 46 45 41 38 38 38
49 48 47 48 53 52 52 51 48 43 39 36 39 36 42 51 48 53 58 60 62 59 54 52 53 55 55 54 53 52 51 50 50 47 48 47 45 45 37 36 38 37 36 37
48 49 50 50 47 50 48 44 42 39 36 32 38 40 42 43 51 52 59 62 62 61 54 54 55 54 52 50 51 50 48 49 49 48 47 46 46 39 36 37 37 37 36 34
44 48 51 50 45 44 44 40 30 27 24 32 43 36 49 51 52 55 58 60 61 55 52 48 48 50 48 47 48 49 48 47 48 47 47 45 45 41 40 38 38 36 34 33
38 41 45 48 51 44 39 45 30 23 28 39 34 31 42 54 59 57 59 61 56 52 51 50 51 51 49 48 47 49 46 48 47 47 46 45 43 42 42 39 39 38 37 36
39 39 43 44 45 50 40 36 46 34 18 23 41 43 51 49 52 52 54 51 51 50 49 49 46 48 47 47 46 47 46 48 47 46 46 44 42 42 41 39 37 38 36 35
48 40 47 42 42 42 42 44 33 32 23 20 38 39 45 50 55 57 51 50 50 49 48 48 47 49 47 47 47 47 47 46 47 45 46 43 42 42 41 37 36 34 34 33
47 43 45 40 38 40 37 37 39 39 34 34 32 40 47 48 49 51 51 51 49 49 48 48 48 48 45 44 45 45 44 44 44 42 42 41 39 38 36 36 36 34 33 32
43 39 32 39 46 45 46 45 46 37 35 33 36 39 60 56 50 52 52 52 51 51 51 50 48 46 43 46 45 44 44 43 43 42 40 39 36 34 35 35 33 31 32 30
42 32 28 30 42 40 40 43 45 44 37 34 29 34 58 57 52 49 51 51 51 52 53 51 48 46 48 46 45 44 44 43 42 41 38 37 34 34 35 34 31 31 29 28
47 34 33 30 39 44 39 40 40 42 35 36 35 38 46 51 54 57 59 61 64 57 54 51 50 46 44 44 45 45 44 43 40 38 37 36 35 35 34 31 31 30 30 28
42 32 34 36 40 42 40 39 42 38 40 34 36 37 43 49 51 54 58 60 55 55 53 52 50 49 47 46 46 45 45 41 39 37 36 36 35 34 30 29 29 29 27 26
40 34 36 32 35 35 33 38 39 38 39 39 40 40 51 53 54 53 54 56 55 56 58 57 50 50 46 43 46 44 44 39 38 37 36 35 31 29 29 29 27 26 25 24
38 33 32 29 35 33 28 34 36 38 41 42 35 42 50 50 51 51 52 55 54 56 56 50 49 48 46 41 42 40 41 36 36 36 34 31 29 27 28 27 26 25 24 24
35 33 33 30 33 22 35 43 41 39 43 45 45 47 50 51 53 55 56 54 54 54 51 48 45 46 42 41 38 38 32 34 34 32 30 28 27 26 26 25 24 23 22 22
40 35 31 28 28 33 37 41 41 38 38 46 44 46 49 51 51 51 53 47 50 51 49 46 43 42 42 40 37 32 30 31 31 29 28 26 26 24 24 23 22 22 21 20
38 38 32 31 26 24 31 33 41 46 32 34 33 34 35 39 35 41 41 41 41 43 40 39 39 38 37 29 28 29 28 29 29 29 28 26 26 23 22 22 20 21 21 19
29 32 28 29 27 32 30 33 37 27 27 33 34 34 35 33 34 37 38 39 40 39 39 36 35 31 29 26 26 25 24 27 26 26 24 23 24 22 22 20 20 20 19 19
21 18 23 26 25 24 31 32 26 30 33 33 33 33 31 33 35 36 37 38 39 39 40 36 30 29 26 27 28 26 24 23 22 22 21 21 21 21 20 18 16 18 17 15
19 23 18 19 20 30 32 29 36 37 32 33 33 34 36 35 35 36 37 38 38 38 36 37 30 28 24 25 27 26 24 23 21 19 19 18 18 17 17 17 15 15 15 14
22 29 22 20 28 29 33 37 38 37 33 33 30 28 30 30 31 31 33 34 34 35 36 37 36 32 29 25 25 28 24 22 20 19 17 15 15 14 14 17 16 15 14 14
24 26 19 20 26 30 33 34 31 31 29 27 28 27 28 28 28 29 30 31 33 34 35 35 34 31 30 26 25 25 23 22 19 18 15 15 15 13 13 16 15 15 17 18
27 24 21 19 30 24 27 28 28 22 22 23 23 22 24 24 24 25 25 27 29 30 32 33 31 31 33 31 27 24 23 21 19 17 15 15 14 14 14 14 14 21 20 24

GFSCGP_sfc_temp_024.txt.gz
Temp
49 44 43 51 49 54 43 42 42 48 53 47 47 51 55 60 56 52 54 58 59 55 64 63 57 58 56 55 54 53 52 51 50 47 45 44 45 43 40 40 43 41 41 40
44 42 52 52 51 47 46 45 46 52 55 47 49 50 56 56 60 61 59 60 60 63 65 65 54 53 55 55 54 53 53 50 52 51 51 48 48 39 45 43 42 42 41 39
48 50 53 51 48 46 45 43 46 45 47 46 44 46 47 51 58 62 62 62 63 61 62 65 53 51 54 54 52 52 52 51 53 52 48 39 40 38 37 40 40 40 40 38
44 53 52 45 45 49 45 50 49 46 38 39 42 39 46 49 51 53 56 58 59 61 63 63 52 49 51 54 53 52 52 51 52 49 47 47 46 45 46 46 40 37 38 38
46 45 44 45 50 48 48 48 46 41 36 33 37 34 42 50 49 52 58 57 59 62 59 59 54 54 53 53 51 52 51 50 52 48 48 47 46 46 40 38 36 37 36 37
46 48 49 48 48 48 47 43 41 35 35 34 39 39 40 41 49 51 57 60 62 63 66 55 53 50 47 48 50 50 49 49 49 46 46 47 46 39 36 36 37 36 36 35
41 44 47 49 43 43 43 39 29 26 24 31 41 35 49 48 51 53 56 57 61 63 64 49 48 47 47 46 47 48 47 47 47 45 46 46 46 42 42 39 39 37 35 34
36 39 44 46 48 43 40 42 29 21 28 38 32 31 44 52 56 56 56 59 60 54 51 51 49 49 47 47 47 47 45 47 46 45 46 46 46 44 43 41 41 39 39 38
35 39 42 44 44 49 38 35 47 30 15 20 36 42 51 47 50 52 53 55 49 51 50 50 46 45 45 46 47 47 45 47 46 46 46 45 44 43 42 40 40 39 38 38
46 39 47 41 41 41 42 43 32 30 21 18 32 34 42 49 53 53 52 51 51 50 49 48 46 45 44 44 45 45 46 46 46 45 45 45 43 43 42 38 37 37 36 35
46 40 42 39 38 43 35 35 36 37 34 32 31 38 56 51 49 47 51 51 50 50 49 48 47 45 44 42 42 43 43 44 44 43 44 44 41 40 41 37 37 35 33 33
45 39 33 38 46 39 41 42 43 36 34 37 38 38 56 57 56 57 57 53 51 49 50 50 48 46 44 44 43 44 44 44 44 44 42 41 39 37 38 36 35 33 33 33
42 35 30 30 36 40 38 43 43 45 42 36 32 36 57 58 56 55 49 51 54 53 51 50 50 48 47 47 46 45 44 44 43 40 39 37 35 35 37 36 35 34 33 32
47 40 34 31 38 42 35 39 43 42 35 36 36 40 48 53 54 56 56 57 57 56 57 61 56 51 49 49 47 45 44 43 39 38 38 37 37 37 37 36 33 33 32 31
43 33 36 36 38 41 41 41 42 39 41 35 40 40 46 50 52 56 56 56 52 53 54 55 53 52 49 46 45 44 45 42 40 39 38 38 38 37 36 32 31 31 30 30
34 30 33 31 35 34 32 37 38 38 40 40 41 40 51 54 55 53 55 56 54 54 55 55 55 53 48 51 49 43 44 42 39 39 37 38 36 34 32 31 30 29 29 28
31 30 28 24 33 32 28 34 36 38 41 40 34 42 50 48 50 51 51 49 42 41 41 44 47 49 46 45 42 41 42 37 36 37 37 35 33 31 29 29 29 28 27 27
29 29 28 24 29 18 36 42 41 38 41 43 41 34 34 36 40 44 38 36 37 39 39 40 41 42 43 40 39 37 32 33 35 35 34 31 30 29 28 27 27 27 26 25
35 30 26 23 25 32 34 34 30 30 30 31 30 31 31 34 36 33 38 38 38 39 39 40 37 38 39 38 34 33 29 30 30 30 31 29 29 27 25 25 26 26 24 24
34 34 27 25 20 18 24 29 31 32 26 27 30 29 29 29 23 29 37 37 38 40 39 38 38 36 38 39 29 29 28 26 27 27 27 25 27 26 25 26 25 25 24 23
9 10 12 17 18 24 26 28 35 23 18 27 29 30 30 26 29 33 36 35 37 37 37 39 36 34 33 32 28 28 25 24 24 23 23 23 25 25 25 25 24 22 22 21
16 11 14 14 9 10 29 29 19 26 32 30 30 29 27 30 32 33 33 33 34 34 35 35 35 35 36 29 25 28 24 24 21 21 21 22 21 23 23 22 21 20 20 19
11 18 15 17 18 29 30 29 34 32 26 28 28 29 28 26 27 28 28 29 31 32 33 34 34 35 36 31 27 24 27 21 20 19 22 21 22 21 21 19 19 19 19 19
17 26 14 15 23 27 30 33 34 32 29 29 26 24 26 24 26 25 25 27 27 27 28 30 30 30 32 36 28 28 26 23 22 23 22 21 20 19 19 19 19 18 17 17
22 23 18 18 25 28 30 31 28 28 26 25 25 24 23 22 21 22 22 22 24 25 26 26 26 27 28 30 33 32 27 24 22 23 21 19 20 19 18 19 19 19 20 21
27 24 20 18 29 28 28 31 27 21 20 20 20 20 21 21 20 20 19 22 21 20 20 19 19 21 22 24 26 30 29 24 23 21 19 18 18 17 18 18 17 25 23 26

GFSCGP_sfc_temp_030.txt.gz
Temp
46 42 40 49 46 46 39 38 37 44 52 42 47 49 53 56 56 57 58 58 58 61 67 66 59 54 52 51 52 52 50 51 49 47 45 44 45 44 43 44 44 43 42 41
40 37 47 46 45 44 42 40 41 47 51 42 44 46 52 55 56 59 60 62 62 61 61 63 57 51 50 53 51 51 51 51 50 51 50 50 50 46 46 44 42 43 41 41
44 46 48 47 43 43 39 37 43 41 43 42 39 39 42 48 52 57 59 61 61 60 62 64 58 53 48 47 48 51 52 51 51 52 50 39 38 36 37 37 39 41 41 40
41 46 46 40 42 44 41 46 45 42 36 32 40 33 40 53 54 49 54 55 54 54 57 57 56 53 47 49 49 51 51 51 51 51 48 48 49 46 45 46 44 41 40 39
43 41 40 40 44 45 42 44 41 36 33 31 31 29 37 43 43 49 52 53 54 56 53 54 54 54 53 49 48 50 50 50 50 50 49 47 49 50 44 46 42 39 39 39
42 43 45 45 44 45 44 39 36 31 32 27 37 35 38 40 46 46 50 55 55 54 54 53 52 51 50 47 45 44 45 47 48 48 49 47 49 46 40 39 39 38 38 38
37 40 42 46 39 39 40 36 28 25 22 31 34 32 45 46 51 51 56 57 52 51 51 51 51 53 49 47 45 42 42 44 45 46 47 47 48 45 43 41 41 38 37 37
35 37 41 43 45 42 36 38 27 19 22 35 32 34 44 49 52 52 49 48 51 51 49 49 49 48 48 46 42 40 40 42 42 43 44 44 46 45 44 41 42 40 40 40
33 34 40 42 41 45 35 34 39 31 19 20 37 43 52 50 48 46 48 47 50 49 49 50 49 47 47 45 42 40 40 40 41 41 43 43 44 43 43 40 39 40 40 40
42 34 41 38 39 38 40 40 31 27 23 18 32 32 40 47 48 49 47 47 48 49 53 62 53 51 46 45 41 40 40 40 39 39 41 43 43 44 42 39 38 38 38 38
44 39 37 37 35 38 34 35 34 36 33 29 26 33 51 47 45 44 49 52 49 50 52 52 47 48 47 43 41 39 38 38 38 39 40 40 41 42 38 37 38 39 38 37
44 36 30 35 44 42 43 43 43 34 28 32 34 33 54 53 51 49 51 54 53 46 42 42 43 44 45 46 46 41 39 38 39 39 38 39 40 37 37 40 39 38 37 37
40 34 29 33 33 34 32 37 39 38 38 32 28 33 48 50 50 52 44 34 39 39 40 40 41 41 41 42 42 43 43 41 38 37 36 36 36 34 39 39 39 37 37 36
41 34 31 27 31 33 30 32 34 32 25 27 28 32 37 40 36 31 34 35 35 35 37 38 38 38 39 40 40 40 40 41 40 35 35 35 36 38 39 40 38 37 37 36
35 26 30 30 32 32 30 28 30 29 32 27 32 34 34 28 29 32 33 33 33 33 34 36 36 37 38 37 38 38 39 38 37 36 36 36 37 36 36 37 36 35 35 36
33 22 26 22 29 29 26 29 31 32 33 33 33 32 28 31 32 31 31 31 32 34 35 37 37 36 36 35 35 35 36 35 35 34 34 37 37 33 34 35 34 33 34 34
25 20 11 17 27 23 16 24 29 29 28 24 22 23 26 26 29 30 31 31 31 31 33 34 35 36 36 36 35 33 34 34 34 34 34 34 34 34 34 34 32 33 32 33
24 17 11 9 7 -0 24 29 27 24 23 23 23 25 24 26 30 31 34 28 28 30 31 34 34 34 35 36 36 35 34 32 32 32 33 33 32 33 31 30 31 32 32 31
28 24 5 5 3 18 26 22 20 17 16 20 21 27 28 30 27 28 35 34 31 30 32 33 32 33 34 33 33 32 32 33 32 30 29 29 29 29 28 28 29 30 30 29
26 26 18 -1 3 -1 16 21 27 24 9 20 19 21 22 25 15 23 32 33 32 32 30 30 30 30 30 29 30 28 29 30 31 31 29 27 25 24 26 27 27 28 29 29
0 -3 1 -5 -6 6 18 24 27 7 14 19 20 24 25 21 22 28 31 28 29 30 30 32 31 29 29 29 28 27 27 28 29 29 29 29 27 23 24 25 26 27 27 26
11 0 -3 -8 -11 -2 21 24 14 22 24 22 26 27 24 26 27 28 27 27 27 26 26 28 26 26 27 28 26 24 25 27 24 24 27 28 28 25 24 24 24 23 23 23
11 15 6 10 10 24 22 26 32 31 25 28 27 29 26 26 25 26 25 25 25 25 25 24 22 23 25 25 24 21 22 22 22 22 22 23 27 26 24 23 22 22 22 22
19 25 17 19 25 26 30 33 32 31 31 32 29 25 24 22 23 23 23 23 23 23 22 22 20 19 18 20 20 19 19 20 18 16 17 19 21 25 24 23 23 22 21 21
23 21 17 19 26 28 30 31 32 32 30 25 24 23 23 21 20 21 20 19 20 21 20 20 18 17 16 17 16 14 15 14 12 13 14 15 18 22 24 22 23 22 24 23
26 24 20 18 29 27 29 33 29 26 24 22 20 19 21 21 19 19 17 18 17 17 17 16 15 14 13 12 11 11 10 9 8 8 10 12 15 18 22 22 22 28 28 28

GFSCGP_sfc_temp_033.txt.gz
Temp
47 42 40 48 46 45 41 40 39 43 51 45 50 49 52 56 55 57 60 60 60 59 64 65 61 60 56 54 54 54 53 54 53 52 50 49 48 49 49 51 50 49 50 48
41 37 46 46 45 43 42 40 40 45 49 43 43 46 53 56 57 59 59 60 58 58 60 60 59 58 55 56 53 53 53 53 52 53 53 55 54 52 52 50 49 49 48 47
43 46 47 46 42 43 39 38 42 40 42 43 40 41 43 50 51 54 58 58 58 57 58 59 58 57 55 53 52 52 53 53 52 54 53 46 48 46 47 46 46 46 47 46
40 45 45 39 41 43 39 44 44 41 37 34 41 33 45 56 55 56 53 53 53 53 55 56 56 57 55 54 52 51 51 52 52 53 50 49 52 48 49 50 48 46 46 46
42 40 39 39 42 44 41 42 41 38 35 33 33 32 39 44 50 51 55 56 55 54 54 56 55 54 55 53 51 49 49 50 52 51 52 49 49 52 50 51 46 45 44 45
41 42 43 44 43 44 43 39 38 33 33 26 36 36 37 42 47 50 53 56 53 54 53 54 53 52 54 51 49 48 47 48 49 49 50 49 49 50 45 45 44 43 43 43
39 40 42 45 40 40 41 37 29 27 24 31 35 32 43 48 54 50 52 53 52 52 51 52 56 56 56 53 49 48 45 45 46 46 48 49 48 49 45 44 44 42 41 41
32 34 41 44 46 43 39 40 32 23 24 35 32 31 41 50 51 50 50 50 50 54 52 51 52 50 51 49 49 46 44 43 44 44 45 47 46 48 46 44 46 44 43 44
34 31 39 42 43 47 38 36 42 33 18 23 38 44 49 45 49 50 48 48 49 48 45 44 44 45 45 45 45 44 43 42 42 42 43 43 44 45 45 44 44 44 44 44
40 32 40 40 40 40 41 43 33 31 22 24 35 37 40 45 47 46 44 38 38 39 40 41 41 42 42 43 44 44 44 42 42 41 41 43 43 44 44 41 40 42 42 42
42 36 35 37 37 38 40 36 36 35 32 27 25 33 45 43 37 34 36 39 37 37 38 39 40 41 41 42 42 42 42 42 41 42 42 41 41 41 42 40 40 40 41 40
41 36 32 37 41 44 43 42 42 33 30 32 33 32 50 41 39 37 35 35 35 36 37 38 39 40 40 40 40 40 40 41 40 40 39 39 41 39 39 40 40 39 39 39
41 34 28 29 33 36 33 34 34 32 31 28 26 31 44 46 45 34 32 33 34 36 37 38 39 39 39 39 39 39 39 39 39 39 38 38 38 38 38 39 39 38 39 38
41 34 31 27 33 32 29 29 31 30 23 26 26 30 37 41 31 32 32 33 34 36 37 37 38 38 39 38 38 38 38 38 37 36 36 36 37 37 38 39 39 38 39 38
34 28 29 33 31 30 28 28 29 28 30 24 29 31 37 29 29 31 34 36 33 34 34 35 35 36 37 37 37 38 38 36 36 34 35 35 35 36 36 36 38 38 37 37
30 23 24 18 29 30 26 27 28 28 29 28 30 29 28 30 32 31 32 32 31 31 32 33 34 34 34 34 34 34 35 35 35 33 33 34 33 33 34 35 34 35 35 36
26 22 14 17 27 20 13 23 30 29 23 23 20 22 24 25 29 29 30 29 30 31 32 31 32 32 32 32 33 32 32 32 32 33 33 32 31 30 31 32 32 32 33 34
27 18 11 4 4 -2 23 25 27 25 23 21 20 20 23 25 29 29 30 28 30 32 32 32 31 31 30 30 30 31 30 29 30 30 32 32 31 29 29 30 30 31 32 32
28 23 2 1 -4 13 23 22 20 16 15 20 17 19 24 28 27 25 31 33 31 31 32 31 31 30 29 29 29 28 27 28 28 28 29 28 26 28 28 28 29 30 30 31
25 25 15 -4 -2 -5 16 20 25 23 10 19 19 20 22 25 14 23 30 31 29 30 30 29 30 30 29 29 28 27 26 26 25 28 26 25 25 27 28 27 28 29 28 28
-0 1 11 7 7 7 18 23 26 6 13 19 18 24 24 22 26 30 30 29 28 28 29 29 28 27 27 27 27 25 25 23 26 25 24 23 25 25 25 27 27 27 27 27
11 -0 -6 -12 -11 -1 19 22 15 20 26 22 27 27 24 27 29 30 29 28 28 26 27 28 24 25 26 26 24 23 22 24 23 21 21 20 20 20 22 23 26 26 25 25
10 14 7 10 9 22 22 23 32 32 25 29 28 29 29 27 28 27 26 26 26 25 25 25 22 22 23 23 22 18 21 21 19 17 15 15 17 17 18 19 22 24 25 23
17 23 17 19 24 26 30 32 32 31 30 32 31 27 25 23 24 23 22 23 23 23 22 22 20 19 19 20 20 18 18 17 13 11 11 12 12 14 15 18 21 24 23 23
24 21 16 18 25 28 29 31 32 31 29 25 23 23 23 21 20 20 19 19 20 20 19 18 17 16 16 17 16 15 14 12 9 9 9 9 10 10 12 16 18 22 25 25
26 23 20 17 28 27 28 31 27 25 22 20 19 18 20 19 17 17 15 16 15 14 14 12 11 11 10 10 9 9 9 8 5 4 5 6 7 8 10 11 13 22 26 30